User: anonymous   Login
Location: Unspecified
(0.0000°N, 0.0000°E)
Time: 01:53:01
(UTC+00:00)
Language:

STARLINK-4535 - Orbit

View from above orbital plane
View from above orbital plane
View from above satellite
View from above satellite

Ground track
Ground track

The orbit is defined by the following mean orbital elements,

1 53392U          26145.27854943 +.00000000 +00000-0 -38105-4 0 00007
2 53392  53.2125 140.2977 0001028  62.0192 298.0904 15.08848719    06
Epoch (UTC): 25 May 2026 06:41:06
Eccentricity: 0.0001028
inclination: 53.2125°
perigee height: 539 km
apogee height: 540 km
right ascension of ascending node: 140.2977°
argument of perigee: 62.0192°
revolutions per day: 15.08848719
mean anomaly at epoch: 298.0904°

The dashed part of the orbit path shows where the satellite is in the earth's shadow,  

DLR